Location: Unspecified
(40.9447°N, 78.9903°W)
Time: 08:50:20
(UTC-04:00)

Resurs 1-4 Rocket - Pass Details

Date: 31 July 2021
Orbit: 799 x 814 km, 98.6° (Epoch: 27 September)

Event Time Altitude Azimuth Distance (km) Brightness Sun altitude
Rises 02:07:22 0° 22° (NNE) 3,338 6.5 -29.9°
Reaches altitude 10° 02:09:56 10° 32° (NNE) 2,399 5.4 -29.8°
Enters shadow 02:14:28 35° 90° (E) 1,289 3.2 -29.6°
